• In Moldova, Republic
  • List of Countries
  • For 7 days
  • Water Temperature
  • Satellite Maps
  • Weather Map
  • Weather Widgets
  • user-avatar
    Login

    Hourly Weather Annaba

    Today, 25 July, Tuesday

    Time Temperature Precipitation Wind Pressure Humidity
    00:00 +26°C° 0 mm 1 mps 760 mmHg 84%
    01:00 +25°C° 0 mm 1 mps 760 mmHg 87%
    02:00 +25°C° 0 mm 1 mps 759 mmHg 88%
    03:00 +25°C° 0 mm 1 mps 759 mmHg 89%
    04:00 +24°C° 0 mm 1 mps 759 mmHg 90%
    05:00 +25°C° 0 mm 1 mps 759 mmHg 87%
    06:00 +25°C° 0 mm 1 mps 759 mmHg 83%
    07:00 +26°C° 0 mm 1 mps 759 mmHg 78%
    08:00 +28°C° 0 mm 2 mps 759 mmHg 70%
    09:00 +29°C° 0 mm 3 mps 758 mmHg 61%
    10:00 +30°C° 0 mm 3 mps 758 mmHg 53%
    11:00 +32°C° 0 mm 4 mps 758 mmHg 50%
    12:00 +33°C° 0 mm 4 mps 758 mmHg 47%
    13:00 +34°C° 0 mm 5 mps 758 mmHg 48%
    14:00 +34°C° 0 mm 5 mps 758 mmHg 48%
    15:00 +34°C° 0 mm 5 mps 758 mmHg 48%
    16:00 +33°C° 0 mm 5 mps 758 mmHg 48%
    17:00 +32°C° 0 mm 5 mps 758 mmHg 51%
    18:00 +30°C° 0 mm 4 mps 758 mmHg 54%
    19:00 +29°C° 0 mm 4 mps 758 mmHg 57%
    20:00 +28°C° 0 mm 3 mps 758 mmHg 61%
    21:00 +27°C° 0 mm 3 mps 758 mmHg 64%
    22:00 +26°C° 0 mm 2 mps 758 mmHg 68%
    23:00 +26°C° 0 mm 2 mps 758 mmHg 69%

    Tomorrow, 26 July, Wednesday

    Time Temperature Precipitation Wind Pressure Humidity
    00:00 +25°C° 0 mm 2 mps 758 mmHg 71%
    01:00 +25°C° 0 mm 2 mps 758 mmHg 72%
    02:00 +25°C° 0 mm 2 mps 758 mmHg 74%
    03:00 +24°C° 0 mm 2 mps 758 mmHg 75%
    04:00 +24°C° 0 mm 2 mps 758 mmHg 76%
    05:00 +25°C° 0 mm 2 mps 758 mmHg 74%
    06:00 +25°C° 0 mm 2 mps 758 mmHg 72%
    07:00 +25°C° 0 mm 2 mps 758 mmHg 69%
    08:00 +27°C° 0 mm 3 mps 758 mmHg 62%
    09:00 +29°C° 0 mm 3 mps 758 mmHg 55%
    10:00 +30°C° 0 mm 3 mps 758 mmHg 48%
    11:00 +32°C° 0 mm 4 mps 758 mmHg 45%
    12:00 +33°C° 0 mm 4 mps 758 mmHg 43%
    13:00 +34°C° 0 mm 4 mps 758 mmHg 40%
    14:00 +34°C° 0 mm 5 mps 758 mmHg 41%
    15:00 +34°C° 0 mm 5 mps 758 mmHg 42%
    16:00 +33°C° 0 mm 5 mps 757 mmHg 43%
    17:00 +32°C° 0 mm 5 mps 758 mmHg 48%
    18:00 +30°C° 0 mm 4 mps 758 mmHg 54%
    19:00 +28°C° 0 mm 4 mps 758 mmHg 59%
    20:00 +27°C° 0 mm 3 mps 759 mmHg 64%
    21:00 +27°C° 0 mm 3 mps 759 mmHg 69%
    22:00 +26°C° 0 mm 2 mps 760 mmHg 74%
    23:00 +25°C° 0 mm 2 mps 760 mmHg 76%

    Day after tomorrow, 27 July, Thursday

    Time Temperature Precipitation Wind Pressure Humidity
    00:00 +25°C° 0 mm 2 mps 760 mmHg 77%
    01:00 +24°C° 0 mm 2 mps 759 mmHg 79%
    02:00 +24°C° 0 mm 2 mps 759 mmHg 80%
    03:00 +24°C° 0 mm 2 mps 759 mmHg 80%
    04:00 +24°C° 0 mm 2 mps 759 mmHg 81%
    05:00 +24°C° 0 mm 2 mps 759 mmHg 77%
    06:00 +25°C° 0 mm 2 mps 760 mmHg 73%
    07:00 +25°C° 0 mm 2 mps 760 mmHg 69%
    08:00 +27°C° 0 mm 2 mps 760 mmHg 60%
    09:00 +29°C° 0 mm 2 mps 760 mmHg 51%
    10:00 +31°C° 0 mm 3 mps 760 mmHg 43%
    11:00 +33°C° 0 mm 3 mps 760 mmHg 40%
    12:00 +34°C° 0 mm 4 mps 760 mmHg 36%
    13:00 +35°C° 0 mm 4 mps 760 mmHg 33%
    14:00 +35°C° 0 mm 4 mps 760 mmHg 34%
    15:00 +35°C° 0 mm 4 mps 760 mmHg 36%
    16:00 +35°C° 0 mm 4 mps 759 mmHg 37%
    17:00 +34°C° 0 mm 4 mps 759 mmHg 41%
    18:00 +33°C° 0 mm 3 mps 760 mmHg 45%
    19:00 +30°C° 0 mm 2 mps 760 mmHg 50%
    20:00 +29°C° 0 mm 2 mps 760 mmHg 55%
    21:00 +28°C° 0 mm 1 mps 760 mmHg 60%
    22:00 +27°C° 0 mm 1 mps 761 mmHg 65%
    23:00 +27°C° 0 mm 1 mps 761 mmHg 64%

    28 July, Friday

    Time Temperature Precipitation Wind Pressure Humidity
    00:00 +27°C° 0 mm 1 mps 761 mmHg 63%
    01:00 +27°C° 0 mm 1 mps 761 mmHg 63%
    02:00 +26°C° 0 mm 1 mps 760 mmHg 61%
    03:00 +26°C° 0 mm 1 mps 760 mmHg 60%
    04:00 +26°C° 0 mm 1 mps 760 mmHg 58%
    05:00 +27°C° 0 mm 1 mps 760 mmHg 55%
    06:00 +28°C° 0 mm 1 mps 760 mmHg 51%
    07:00 +29°C° 0 mm 1 mps 760 mmHg 48%
    08:00 +31°C° 0 mm 2 mps 760 mmHg 42%
    09:00 +34°C° 0 mm 2 mps 761 mmHg 35%
    10:00 +37°C° 0 mm 2 mps 761 mmHg 29%
    11:00 +38°C° 0 mm 3 mps 761 mmHg 27%
    12:00 +38°C° 0 mm 3 mps 761 mmHg 26%
    13:00 +40°C° 0 mm 4 mps 760 mmHg 25%
    14:00 +40°C° 0 mm 4 mps 760 mmHg 25%
    15:00 +40°C° 0 mm 4 mps 760 mmHg 26%
    16:00 +40°C° 0 mm 4 mps 760 mmHg 27%
    17:00 +38°C° 0 mm 4 mps 760 mmHg 30%
    18:00 +36°C° 0 mm 4 mps 760 mmHg 34%
    19:00 +35°C° 0 mm 3 mps 760 mmHg 37%
    20:00 +34°C° 0 mm 3 mps 760 mmHg 41%
    21:00 +31°C° 0 mm 2 mps 761 mmHg 44%
    22:00 +30°C° 0 mm 2 mps 761 mmHg 48%
    23:00 +30°C° 0 mm 2 mps 761 mmHg 48%

    29 July, Saturday

    Time Temperature Precipitation Wind Pressure Humidity
    00:00 +29°C° 0 mm 2 mps 761 mmHg 49%
    01:00 +29°C° 0 mm 2 mps 760 mmHg 49%
    02:00 +29°C° 0 mm 2 mps 760 mmHg 50%
    03:00 +29°C° 0 mm 2 mps 760 mmHg 50%
    04:00 +28°C° 0 mm 2 mps 760 mmHg 50%
    05:00 +29°C° 0 mm 2 mps 760 mmHg 48%
    06:00 +30°C° 0 mm 2 mps 760 mmHg 45%
    07:00 +31°C° 0 mm 2 mps 760 mmHg 43%
    08:00 +35°C° 0 mm 2 mps 760 mmHg 37%
    09:00 +37°C° 0 mm 2 mps 760 mmHg 32%
    10:00 +40°C° 0 mm 2 mps 761 mmHg 26%
    11:00 +42°C° 0 mm 3 mps 760 mmHg 24%
    12:00 +43°C° 0 mm 3 mps 760 mmHg 23%
    13:00 +44°C° 0 mm 4 mps 760 mmHg 21%
    14:00 +44°C° 0 mm 4 mps 759 mmHg 21%
    15:00 +45°C° 0 mm 5 mps 759 mmHg 22%
    16:00 +45°C° 0 mm 6 mps 759 mmHg 22%
    17:00 +43°C° 0 mm 5 mps 759 mmHg 24%
    18:00 +41°C° 0 mm 5 mps 759 mmHg 26%
    19:00 +40°C° 0 mm 5 mps 759 mmHg 28%
    20:00 +38°C° 0 mm 4 mps 759 mmHg 31%
    21:00 +36°C° 0 mm 4 mps 760 mmHg 34%
    22:00 +35°C° 0 mm 4 mps 760 mmHg 37%
    23:00 +34°C° 0 mm 3 mps 760 mmHg 38%

    30 July, Sunday

    Time Temperature Precipitation Wind Pressure Humidity
    00:00 +34°C° 0 mm 3 mps 759 mmHg 38%
    01:00 +34°C° 0 mm 3 mps 759 mmHg 38%
    02:00 +34°C° 0 mm 3 mps 759 mmHg 40%
    03:00 +33°C° 0 mm 3 mps 759 mmHg 41%
    04:00 +33°C° 0 mm 3 mps 758 mmHg 42%
    05:00 +34°C° 0 mm 3 mps 759 mmHg 41%
    06:00 +34°C° 0 mm 2 mps 759 mmHg 40%
    07:00 +35°C° 0 mm 2 mps 759 mmHg 39%
    08:00 +37°C° 0 mm 2 mps 759 mmHg 34%
    09:00 +40°C° 0 mm 2 mps 759 mmHg 30%
    10:00 +42°C° 0 mm 2 mps 759 mmHg 25%
    11:00 +44°C° 0 mm 3 mps 759 mmHg 24%
    12:00 +45°C° 0 mm 3 mps 759 mmHg 23%
    13:00 +45°C° 0 mm 4 mps 758 mmHg 22%
    14:00 +45°C° 0 mm 4 mps 758 mmHg 23%
    15:00 +45°C° 0 mm 5 mps 758 mmHg 24%
    16:00 +45°C° 0 mm 5 mps 757 mmHg 26%
    17:00 +43°C° 0 mm 4 mps 758 mmHg 28%
    18:00 +41°C° 0 mm 4 mps 758 mmHg 31%
    19:00 +39°C° 0 mm 3 mps 758 mmHg 34%
    20:00 +37°C° 0 mm 3 mps 758 mmHg 37%
    21:00 +36°C° 0 mm 3 mps 758 mmHg 40%
    22:00 +34°C° 0 mm 3 mps 759 mmHg 43%
    23:00 +34°C° 0 mm 2 mps 758 mmHg 43%
    Show more